Regional Weather Roundup
Issued by NWS

Home | Current Version | Previous Version | Text Only | Print | Product List | Glossary On
Versions: 1 2 3 4 5 6 7 8 9 10 11 12 13 14 15 16 17 18 19 20 21 22 23 24 25 26 27 28 29 30 31 32 33 34 35 36 37 38 39 40 41 42 43 44 45 46 47 48 49 50
000
ASUS43 KLSX 211207
RWRMO

WEATHER SUMMARY FOR MISSOURI
NATIONAL WEATHER SERVICE SPRINGFIELD MO
700 AM CDT SAT OCT 21 2017

NOTE: "FAIR" INDICATES FEW OR NO CLOUDS BELOW 12,000 FEET WITH NO
       SIGNIFICANT WEATHER AND/OR OBSTRUCTIONS TO VISIBILITY.
       CURRENT SKY AND/OR WEATHER CONDITIONS ARE NOT AVAILABLE FOR
       CHILLICOTHE AND FARMINGTON.

MOZ001>031-035>038-043-044-053-054-211300-
...NORTHERN AND WESTERN MISSOURI...

CITY           SKY/WX    TMP DP  RH WIND       PRES   REMARKS
KANSAS CTY INT CLOUDY    66  58  75 S24G32    29.82R
6HR MIN TEMP:  63; 6HR MAX TEMP:  66;

KANSAS C DTWN  CLOUDY    67  58  72 S14G26    29.84R
6HR MIN TEMP:  66; 6HR MAX TEMP:  68;

LEE`S SUMMIT   CLOUDY    64  56  75 S21G29    29.87R
6HR MIN TEMP:  63; 6HR MAX TEMP:  65;

ST JOSEPH      LGT RAIN  66  60  81 S15G30    29.78S
6HR MIN TEMP:  66; 6HR MAX TEMP:  68; 6HR PCP: TRACE;

CHILLICOTHE      N/A     64  57  78 S9G20     29.88R
6HR MIN TEMP:  64; 6HR MAX TEMP:  66;

KIRKSVILLE     CLEAR     62  57  83 S14       29.91F
6HR MIN TEMP:  61; 6HR MAX TEMP:  65;


$$
MOZ066>068-077>081-088>096-101>105-211300-
...SOUTHWEST MISSOURI...

CITY           SKY/WX    TMP DP  RH WIND       PRES   REMARKS
SPRINGFIELD    PTCLDY    62  57  83 S17G25    29.95S
6HR MIN TEMP:  62; 6HR MAX TEMP:  63;

JOPLIN         MOCLDY    65  60  84 S16       29.92R
6HR MIN TEMP:  63; 6HR MAX TEMP:  65; 6HR PCP: TRACE;

BRANSON        PTCLDY    63  57  82 SE7       30.00S

$$
MOZ032>034-039>042-045>050-055>058-069>072-211300-
...CENTRAL MISSOURI...

CITY           SKY/WX    TMP DP  RH WIND       PRES   REMARKS
COLUMBIA       CLEAR     62  55  77 S12       29.96S
6HR MIN TEMP:  62; 6HR MAX TEMP:  63;

JEFFERSON CITY PTCLDY    64  54  69 SE5       29.97R
6HR MIN TEMP:  62; 6HR MAX TEMP:  66;

ROLLA          CLOUDY    65  57  75 S17       30.01S
6HR MIN TEMP:  63; 6HR MAX TEMP:  65;

SEDALIA        CLOUDY    64  58  80 S14       29.93S
6HR MIN TEMP:  64; 6HR MAX TEMP:  66;

WHITEMAN AFB   PTCLDY    63  55  76 S12       29.86S
WARRENSBURG    CLEAR     63  54  72 S9G16     29.89S
OSAGE BEACH    CLEAR     63  56  78 S10       29.97S

$$
MOZ051-052-059>065-211300-
...EAST CENTRAL MISSOURI...

CITY           SKY/WX    TMP DP  RH WIND       PRES   REMARKS
ST LOUIS INTL  MOCLDY    63  54  72 SE12      30.04F
6HR MIN TEMP:  62; 6HR MAX TEMP:  66; 6HR PCP: TRACE;

SPIRIT OF STL  LGT RAIN  65  55  70 S5        30.02S
6HR MIN TEMP:  63; 6HR MAX TEMP:  67; 6HR PCP: TRACE;

ST CHARLES     CLOUDY    60  53  77 SE8       30.03S
6HR MIN TEMP:  58; 6HR MAX TEMP:  65; 6HR PCP: TRACE;


$$
MOZ072>076-082>087-097>100-106>115-211300-
...SOUTH CENTRAL AND SOUTHEAST MISSOURI...

CITY           SKY/WX    TMP DP  RH WIND       PRES   REMARKS
CAPE GIRARDEAU CLOUDY    60  50  69 S10       30.11R
6HR MIN TEMP:  55; 6HR MAX TEMP:  60;

FARMINGTON     MOCLDY    62  55  77 S9        30.09R
6HR MIN TEMP:  62; 6HR MAX TEMP:  64;

POPLAR BLUFF   CLOUDY    55  53  93 CALM      30.10R
6HR MIN TEMP:  55; 6HR MAX TEMP:  60;

WEST PLAINS    LGT RAIN  62  58  86 SE6       30.07S
6HR MIN TEMP:  60; 6HR MAX TEMP:  64; 6HR PCP:  0.03;


$$



USA.gov is the U.S. government's official web portal to all federal, state and local government web resources and services.